Powrót do katalogu

FENGYUN 1C DEB

AktywnySSO
NORAD 31274·DEBRIS·🇨🇳 China

Wystrzelony May 10, 1999 z Taiyuan Satellite Launch Center

Loading…

Następne Przeloty (najbliższe 24 godziny)

TLE

ŚwieżeSource: Space-Track

Epoka: Sep 12, 2026, 22:58 UTC

1 31274U 99025BNG 26255.95701681  .00000479  00000-0  35912-3 0  9992
2 31274  99.0221  70.2454 0240396  89.4116 273.4579 13.86135213980059

Śledź FENGYUN 1C DEB w czasie rzeczywistym z AllMySat

Download on the App Store